FENGYUN 1C DEB, 30202

Orbit data source: Space-Track

FENGYUN 1C DEB, 30202 is space debris in SSO originally from a launch on Mon, 10 May 1999 UTC launched from the Taiyaun Space Center, China (TSC). Fengyun 1C debris stems from the Chinese weather satellite Fengyun-1C, which was intentionally destroyed by a Chinese anti-satellite missile in 2007. This event dramatically increased the amount of space debris, with thousands of trackable fragments posing hazards to satellites and human spaceflight. The Fengyun 1C debris cloud has become a focal point in discussions about space sustainability and the need for international regulations to prevent the creation of new debris.

Loading next visibility...
Identifier
30202, 1999-025VK
Orbit
SSO
Country
Flag of CNCN / PRC
Related business
Manufacturer
Unknown
Mission
Spacecraft
Bus & Motor
Unknown
Mass
Unknown
Launch date (UTC)
1999-05-10 (27 years ago)
Launch vehicle
Unknown
Launch site
Taiyaun Space Center, China (TSC)
Object type
Payload
Rocket body
Debris
Shape & HBR
Unknown shape, 0.1 m
Radar Cross Section
Small (<0.1 m²)

Expand to show TLE details & history
Last TLE update: 15 hours ago

TLE from 15 hours ago
0 FENGYUN 1C DEB
1 30202U 99025VK  26073.85526402  .00012108  00000-0  28236-2 0  9997
2 30202  98.6345 178.9584 0040352 138.0330 222.3969 14.54413017996274
Epoch: 2026-03-14T20:31Z
TLE epoch observation values (Epoch: 2026-03-14T20:31:34.811Z)
Latitude
-0.00009°
Longitude
58.59291°
Altitude
735.418 km
Speed
7.476 km/s
True Right ascension
11h 55m 50s
True Declination
0° 00' 00"
Sunlit
Object was in full shadow at epoch
Visualization orbit readout
Latitude
Unknown
Longitude
Unknown
Altitude
Unknown
Speed
Unknown
Apparent Right ascension
Unknown
Apparent Declination
Unknown
Sunlit
N/A
Visualization observer readout
Local Sidereal Time
16:14:29
Azimuth
Unknown
Elevation
Unknown
Doppler factor
Unknown
Orbital elements
Apogee altitude
736.976 km
Perigee altitude
679.785 km
Semi-major axis
7,086.518 km
Eccentricity
0.00404
Inclination
98.6345°
RAAN
178.9584°
Arg. of periapsis
138.033°
True anomaly
222.08628°
Mean anomaly
222.3969°
Eccentric anomaly
222.24147°
Mean motion
3.63826 °/min
Orbital period
98.95 mins
BSTAR
0.0028236
Loading maneuver chart data...
Computing Atmospheric mass density...

Documentation

Showing up to 5 results
|